Yosemite National Park, California, United States (95389)
Lat: 37.54N, Lon: 119.84W
Wx Zone: CAZ093
Local Info
Past Weather Observations for Saturday, July 26, 2014

NOTE: This archive is for the closest National Weather Service station to Yosemite National Park. Information may differ from the station used for current weather conditions.

Click here for Long-term Archive

Time Weather Temperature Dewpoint Humidity Pressure Winds Precip Visibility
23:53
Clear
81°F / 27°C 48°F / 9°C 32% 29.89 in
(1012 mb)
WNW 3.5 mph
(WNW 6 kph)
- 10SM
22:53
Clear
81°F / 27°C 52°F / 11°C 37% 29.89 in
(1012 mb)
W 4.6 mph
(W 7 kph)
- 10SM
21:53
Clear
84°F / 29°C 55°F / 13°C 37% 29.89 in
(1012 mb)
NW 8.1 mph
(NW 13 kph)
- 10SM
20:53
Clear
84°F / 29°C 57°F / 14°C 40% 29.86 in
(1011 mb)
W 5.8 mph
(W 9 kph)
- 10SM
19:53
Clear
91°F / 33°C 52°F / 11°C 26% 29.83 in
(1010 mb)
NW 8.1 mph
(NW 13 kph)
- 10SM
18:53
Clear
97°F / 36°C 50°F / 10°C 20% 29.83 in
(1010 mb)
NNW 8.1 mph
(NNW 13 kph)
- 10SM
17:53
Clear
99°F / 37°C 54°F / 12°C 22% 29.8 in
(1009 mb)
NNW 9.2 mph
(NNW 15 kph)
- 10SM
16:53
Clear
102°F / 39°C 52°F / 11°C 18% 29.8 in
(1009 mb)
NNW 11.5 mph
(NNW 19 kph)
- 10SM
15:53
Clear
104°F / 40°C 45°F / 7°C 13% 29.83 in
(1010 mb)
WNW 6.9 mph
(WNW 11 kph)
- 10SM
14:53
Clear
104°F / 40°C 45°F / 7°C 13% 29.83 in
(1010 mb)
NW 6.9 mph
(NW 11 kph)
- 10SM
13:53
Clear
102°F / 39°C 45°F / 7°C 14% 29.86 in
(1011 mb)
NW 9.2 mph
(NW 15 kph)
- 10SM
12:53
Clear
102°F / 39°C 46°F / 8°C 15% 29.86 in
(1011 mb)
NNW 10.4 mph
(NNW 17 kph)
- 10SM
11:53
Clear
99°F / 37°C 46°F / 8°C 17% 29.89 in
(1012 mb)
NNW 10.4 mph
(NNW 17 kph)
- 10SM
10:53
Clear
97°F / 36°C 50°F / 10°C 20% 29.89 in
(1012 mb)
NNW 6.9 mph
(NNW 11 kph)
- 10SM
09:53
Clear
93°F / 34°C 52°F / 11°C 24% 29.92 in
(1013 mb)
NNW 6.9 mph
(NNW 11 kph)
- 10SM
08:53
Clear
90°F / 32°C 52°F / 11°C 27% 29.89 in
(1012 mb)
NW 6.9 mph
(NW 11 kph)
- 10SM
07:53
Clear
82°F / 28°C 50°F / 10°C 32% 29.89 in
(1012 mb)
N 4.6 mph
(N 7 kph)
- 10SM
06:53
Clear
75°F / 24°C 54°F / 12°C 47% 29.89 in
(1012 mb)
NW 4.6 mph
(NW 7 kph)
- 10SM
05:53
Clear
66°F / 19°C 52°F / 11°C 60% 29.86 in
(1011 mb)
Calm - 10SM
04:53
Clear
68°F / 20°C 54°F / 12°C 60% 29.83 in
(1010 mb)
Calm - 10SM
03:53
Clear
73°F / 23°C 54°F / 12°C 50% 29.83 in
(1010 mb)
Calm - 10SM
02:53
Clear
72°F / 22°C 54°F / 12°C 53% 29.83 in
(1010 mb)
NW 4.6 mph
(NW 7 kph)
- 10SM
01:53
Clear
73°F / 23°C 54°F / 12°C 50% 29.83 in
(1010 mb)
W 4.6 mph
(W 7 kph)
- 10SM
00:53
Clear
73°F / 23°C 54°F / 12°C 50% 29.83 in
(1010 mb)
SSW 6.9 mph
(SSW 11 kph)
- 10SM
Time Weather Temperature Dewpoint Humidity Pressure Winds Precip Visibility


Weather for websites

WeatherForYou.com, LLC is not responsible for any damages or problems caused by this service. Current weather conditions are obtained from the closest station including government and personal stations which may have varying degrees of accuracy. Weather forecasts are derived from the NOAA NDFD. Like all things, this site belongs to Jesus Christ... He just trusts me to maintain it. If you have any questions or comments email webmaster@weatherforyou.com

Copyright © 2014, WeatherForYou.com LLC. All rights reserved.